Rensselaer, IN

2:23 AM CDT on September 26, 2016 (GMT -0500)
Jasper County

Weather History for KRZL - October, 2012

Change the Weather History Date:

Tuesday, October 16, 2012

  Actual Average (KVPZ) Record (KVPZ)
Temperature  
Mean Temperature 52 °F 52 °F  
Max Temperature 68 °F 63 °F 79 °F (1998)
Min Temperature 37 °F 42 °F 34 °F (2012)
Degree Days  
Heating Degree Days 12 13  
Month to date heating degree days 174  
Since 1 July heating degree days 304  
Cooling Degree Days 0 0  
Month to date cooling degree days 11  
Year to date cooling degree days 713  
Growing Degree Days 2 (Base 50)    
Moisture  
Dew Point 41 °F    
Average Humidity 66    
Maximum Humidity 100    
Minimum Humidity 37    
Precipitation  
Precipitation 0.00 in 0.12 in 1.09 in (2001)
Month to date precipitation 1.66  
Year to date precipitation 30.41  
Sea Level Pressure  
Sea Level Pressure 29.82 in    
Wind  
Wind Speed 7 mph (SE)    
Max Wind Speed 18 mph    
Max Gust Speed 28 mph    
Visibility 10 miles    
Events      
T = Trace of Precipitation, MM = Missing Value Source: NWS Daily Summary

Daily Weather History Graph

Daily Weather History Graph

Search for Another Location

Airport or City:

Trip Planner

Search our weather history database for the weather conditions in past years. The results will help you decide how hot, cold, wet, or windy it might be!

Date:

Astronomy

Oct. 16, 2012 Rise Set
Actual Time 7:01 AM CDT 6:05 PM CDT
Civil Twilight 6:34 AM CDT 6:33 PM CDT
Nautical Twilight 6:02 AM CDT 7:05 PM CDT
Astronomical Twilight 5:30 AM CDT 7:37 PM CDT
Moon 8:25 AM CDT (10/16) 6:49 PM CDT (10/16)
Length of Visible Light 11h 59m
Length of Day
11h 04m
New Moon, 2% of the Moon is Illuminated
Oct 16
New Moon
Oct 21
First Quarter
Oct 29
Full
Nov 6
Last Quarter
Nov 13
New

Hourly Weather History & Observations

Time (CDT) Temp. Windchill Dew Point Humidity Pressure Visibility Wind Dir Wind Speed Gust Speed Precip Events Conditions
12:15 AM 41.0 °F 38.0 °F 37.4 °F 87% 29.97 in 10.0 mi ENE 4.6 mph - N/A   Clear
12:35 AM 41.0 °F 38.0 °F 37.4 °F 87% 29.98 in 10.0 mi ENE 4.6 mph - N/A   Clear
12:55 AM 39.2 °F 37.0 °F 37.4 °F 93% 29.98 in 10.0 mi ENE 3.5 mph - N/A   Clear
1:15 AM 39.2 °F 35.9 °F 37.4 °F 93% 29.99 in 10.0 mi ENE 4.6 mph - N/A   Clear
1:35 AM 39.2 °F 35.9 °F 37.4 °F 93% 29.98 in 10.0 mi ENE 4.6 mph - N/A   Clear
1:55 AM 37.4 °F 33.8 °F 37.4 °F 100% 29.98 in 10.0 mi East 4.6 mph - N/A   Clear
2:15 AM 39.2 °F 37.0 °F 37.4 °F 93% 29.98 in 10.0 mi East 3.5 mph - N/A   Clear
2:35 AM 39.2 °F 37.0 °F 37.4 °F 93% 29.98 in 10.0 mi East 3.5 mph - N/A   Clear
2:55 AM 39.2 °F 35.9 °F 37.4 °F 93% 29.97 in 10.0 mi East 4.6 mph - N/A   Clear
3:15 AM 37.4 °F 34.9 °F 35.6 °F 93% 29.96 in 10.0 mi East 3.5 mph - N/A   Clear
3:35 AM 37.4 °F 34.9 °F 35.6 °F 93% 29.96 in 10.0 mi East 3.5 mph - N/A   Clear
3:55 AM 37.4 °F 33.8 °F 35.6 °F 93% 29.95 in 10.0 mi East 4.6 mph - N/A   Clear
4:15 AM 37.4 °F 34.9 °F 35.6 °F 93% 29.95 in 10.0 mi East 3.5 mph - N/A   Clear
4:35 AM 37.4 °F 33.8 °F 35.6 °F 93% 29.96 in 10.0 mi ESE 4.6 mph - N/A   Clear
5:15 AM 37.4 °F 33.8 °F 35.6 °F 93% 29.96 in 10.0 mi SE 4.6 mph - N/A   Clear
5:35 AM 39.2 °F 35.9 °F 37.4 °F 93% 29.95 in 10.0 mi ESE 4.6 mph - N/A   Clear
5:55 AM 39.2 °F 35.9 °F 37.4 °F 93% 29.96 in 10.0 mi SE 4.6 mph - N/A   Clear
6:15 AM 39.2 °F 37.0 °F 37.4 °F 93% 29.96 in 10.0 mi SE 3.5 mph - N/A   Clear
6:35 AM 37.4 °F 34.9 °F 35.6 °F 93% 29.95 in 10.0 mi ESE 3.5 mph - N/A   Clear
6:55 AM 37.4 °F 33.8 °F 35.6 °F 93% 29.94 in 10.0 mi ESE 4.6 mph - N/A   Clear
7:15 AM 39.2 °F 37.0 °F 37.4 °F 93% 29.94 in 7.0 mi ESE 3.5 mph - N/A   Clear
7:35 AM 39.2 °F 37.0 °F 37.4 °F 93% 29.94 in 7.0 mi ESE 3.5 mph - N/A   Clear
7:55 AM 41.0 °F 39.0 °F 39.2 °F 93% 29.93 in 10.0 mi SE 3.5 mph - N/A   Clear
8:35 AM 44.6 °F 41.4 °F 41.0 °F 87% 29.94 in 10.0 mi SE 5.8 mph - N/A   Clear
8:55 AM 46.4 °F 44.3 °F 42.8 °F 87% 29.94 in 10.0 mi SE 4.6 mph - N/A   Clear
9:15 AM 50.0 °F - 42.8 °F 76% 29.94 in 10.0 mi SE 6.9 mph - N/A   Clear
9:35 AM 51.8 °F - 42.8 °F 71% 29.93 in 10.0 mi SE 8.1 mph - N/A   Clear
9:55 AM 55.4 °F - 42.8 °F 63% 29.93 in 10.0 mi SSE 10.4 mph - N/A   Clear
10:15 AM 57.2 °F - 42.8 °F 59% 29.92 in 10.0 mi SSE 12.7 mph - N/A   Clear
10:35 AM 59.0 °F - 42.8 °F 55% 29.91 in 10.0 mi SSE 12.7 mph - N/A   Clear
10:55 AM 59.0 °F - 42.8 °F 55% 29.90 in 10.0 mi SSE 15.0 mph 19.6 mph N/A   Clear
11:15 AM 60.8 °F - 42.8 °F 52% 29.89 in 10.0 mi South 13.8 mph 19.6 mph N/A   Clear
11:35 AM 60.8 °F - 42.8 °F 52% 29.89 in 10.0 mi SSE 12.7 mph 18.4 mph N/A   Clear
11:55 AM 60.8 °F - 42.8 °F 52% 29.87 in 10.0 mi SSE 13.8 mph 20.7 mph N/A   Clear
12:15 PM 62.6 °F - 41.0 °F 45% 29.86 in 10.0 mi SSE 13.8 mph 20.7 mph N/A   Clear
12:35 PM 62.6 °F - 41.0 °F 45% 29.84 in 10.0 mi SSE 13.8 mph 24.2 mph N/A   Clear
12:55 PM 64.4 °F - 41.0 °F 42% 29.83 in 10.0 mi SSE 13.8 mph 23.0 mph N/A   Clear
1:15 PM 64.4 °F - 41.0 °F 42% 29.81 in 10.0 mi SE 18.4 mph 24.2 mph N/A   Clear
1:35 PM 66.2 °F - 41.0 °F 40% 29.79 in 10.0 mi SSE 11.5 mph 20.7 mph N/A   Clear
1:55 PM 68.0 °F - 41.0 °F 37% 29.78 in 10.0 mi SSE 16.1 mph 23.0 mph N/A   Clear
2:15 PM 68.0 °F - 42.8 °F 40% 29.76 in 10.0 mi SE 18.4 mph 23.0 mph N/A   Clear
2:35 PM 68.0 °F - 41.0 °F 37% 29.75 in 10.0 mi SSE 17.3 mph 27.6 mph N/A   Clear
2:55 PM 68.0 °F - 41.0 °F 37% 29.73 in 10.0 mi SSE 17.3 mph 26.5 mph N/A   Clear
3:15 PM 68.0 °F - 41.0 °F 37% 29.72 in 10.0 mi South 13.8 mph 24.2 mph N/A   Clear
3:35 PM 68.0 °F - 41.0 °F 37% 29.71 in 10.0 mi SSE 17.3 mph 24.2 mph N/A   Clear
3:55 PM 68.0 °F - 42.8 °F 40% 29.70 in 10.0 mi SSE 18.4 mph 25.3 mph N/A   Clear
4:15 PM 68.0 °F - 42.8 °F 40% 29.69 in 10.0 mi SSE 15.0 mph 24.2 mph N/A   Clear
4:55 PM 66.2 °F - 42.8 °F 43% 29.67 in 10.0 mi SSE 10.4 mph 23.0 mph N/A   Clear
5:15 PM 66.2 °F - 42.8 °F 43% 29.67 in 10.0 mi SSE 10.4 mph - N/A   Clear
5:35 PM 64.4 °F - 42.8 °F 45% 29.67 in 10.0 mi SSE 9.2 mph - N/A   Clear
5:55 PM 64.4 °F - 44.6 °F 49% 29.66 in 10.0 mi SSE 6.9 mph - N/A   Clear
6:15 PM 62.6 °F - 44.6 °F 52% 29.66 in 10.0 mi SSE 8.1 mph - N/A   Scattered Clouds
6:35 PM 62.6 °F - 44.6 °F 52% 29.67 in 10.0 mi SSE 8.1 mph - N/A   Scattered Clouds
6:55 PM 62.6 °F - 44.6 °F 52% 29.67 in 10.0 mi SSE 9.2 mph - N/A   Scattered Clouds
7:15 PM 62.6 °F - 44.6 °F 52% 29.67 in 10.0 mi SSE 9.2 mph 16.1 mph N/A   Mostly Cloudy
7:35 PM 62.6 °F - 44.6 °F 52% 29.66 in 10.0 mi SSE 10.4 mph 17.3 mph N/A   Overcast
7:55 PM 62.6 °F - 46.4 °F 55% 29.66 in 10.0 mi SSE 10.4 mph - N/A   Mostly Cloudy
8:15 PM 62.6 °F - 46.4 °F 55% 29.66 in 10.0 mi SSE 12.7 mph 19.6 mph N/A   Scattered Clouds
8:35 PM 62.6 °F - 46.4 °F 55% 29.66 in 10.0 mi SSE 9.2 mph - N/A   Mostly Cloudy
8:55 PM 62.6 °F - 46.4 °F 55% 29.66 in 10.0 mi SSE 10.4 mph 18.4 mph N/A   Mostly Cloudy
9:15 PM 62.6 °F - 46.4 °F 55% 29.65 in 10.0 mi SSE 12.7 mph 21.9 mph N/A   Overcast
9:35 PM 62.6 °F - 46.4 °F 55% 29.65 in 10.0 mi SSE 15.0 mph 20.7 mph N/A   Overcast
9:55 PM 62.6 °F - 46.4 °F 55% 29.65 in 10.0 mi SSE 11.5 mph - N/A   Mostly Cloudy
10:15 PM 62.6 °F - 46.4 °F 55% 29.65 in 10.0 mi SSE 10.4 mph 16.1 mph N/A   Scattered Clouds
10:35 PM 62.6 °F - 46.4 °F 55% 29.65 in 10.0 mi SSE 11.5 mph - N/A   Clear
10:55 PM 62.6 °F - 46.4 °F 55% 29.65 in 10.0 mi South 12.7 mph 18.4 mph N/A   Clear
11:15 PM 62.6 °F - 48.2 °F 59% 29.65 in 10.0 mi South 11.5 mph - N/A   Clear
11:35 PM 62.6 °F - 48.2 °F 59% 29.65 in 10.0 mi South 9.2 mph - N/A   Clear
11:55 PM 62.6 °F - 48.2 °F 59% 29.64 in 10.0 mi South 10.4 mph - N/A   Clear